This demonstration page uses our WeatherBlox Daily Observations layout. Learn more.

Left ArrowRight Arrow

39.29038, -76.61219

Hourly Observations for May 23, 2021

Temp ( °F °C ) Dew Point ( °F °C ) Humidity (%) Winds ( mph kmh ) Pressure ( in mb ) Visibility ( mi km ) Precip ( " mm )
12:54 am 00:54 Mostly Cloudy 75 23.9 54 12.2 48 48 W 8 13 30.09 1019 10 16 N/A
1:54 am 01:54 Mostly Cloudy 74 23.3 54 12.2 50 50 WSW 6 9 30.07 1018 10 16 N/A
2:54 am 02:54 Mostly Cloudy 72 22.2 54 12.2 53 53 WSW 6 9 30.06 1018 10 16 N/A
3:54 am 03:54 Mostly Cloudy 71 21.7 54 12.2 55 55 W 3 6 30.06 1018 10 16 N/A
4:54 am 04:54 Mostly Cloudy 72 22.2 53 11.7 52 52 W 6 9 30.05 1018 10 16 N/A
5:54 am 05:54 Cloudy 72 22.2 53 11.7 52 52 WSW 7 11 30.06 1018 10 16 N/A
6:54 am 06:54 Mostly Cloudy 72 22.2 54 12.2 53 53 W 6 9 30.06 1018 10 16 N/A
7:54 am 07:54 Mostly Cloudy 74 23.3 55 12.8 52 52 WSW 9 15 30.06 1018 10 16 N/A
8:54 am 08:54 Partly Cloudy 80 26.7 56 13.3 44 44 W 8 13 30.05 1018 10 16 N/A
9:54 am 09:54 Mostly Sunny 85 29.4 56 13.3 37 37 WNW 10 17 30.04 1017 10 16 N/A
10:54 am 10:54 Partly Cloudy 87 30.6 58 14.4 37 37 W 15 24 30.02 1017 10 16 N/A
11:54 am 11:54 Partly Cloudy 89 31.7 59 15 36 36 NW 13 20 30.01 1016 10 16 N/A
12:54 pm 12:54 Partly Cloudy 91 32.8 60 15.6 35 35 NW 16 26 29.98 1015 10 16 N/A
1:54 pm 13:54 Partly Cloudy 93 33.9 60 15.6 33 33 W 15 24 29.96 1015 10 16 N/A
2:54 pm 14:54 Partly Cloudy 93 33.9 60 15.6 33 33 WNW 15 24 29.95 1014 10 16 N/A
3:54 pm 15:54 Partly Cloudy 95 35 60 15.6 31 31 W 15 24 29.93 1014 10 16 N/A
4:54 pm 16:54 Partly Cloudy 94 34.4 61 16.1 33 33 WNW 13 20 29.93 1013 10 16 N/A
5:54 pm 17:54 Partly Cloudy 93 33.9 61 16.1 34 34 NW 7 11 29.92 1013 10 16 N/A
6:54 pm 18:54 Mostly Sunny 91 32.8 61 16.1 37 37 NW 8 13 29.93 1013 10 16 N/A
7:54 pm 19:54 Partly Cloudy 88 31.1 61 16.1 40 40 WNW 7 11 29.94 1014 10 16 N/A
8:54 pm 20:54 Mostly Cloudy 83 28.3 62 16.7 49 49 W 6 9 29.96 1015 10 16 N/A
9:54 pm 21:54 Mostly Cloudy 80 26.7 62 16.7 54 54 W 6 9 29.98 1015 10 16 N/A
10:54 pm 22:54 Mostly Cloudy 82 27.8 62 16.7 51 51 WNW 9 15 29.99 1016 10 16 N/A
11:54 pm 23:54 Mostly Cloudy 81 27.2 62 16.7 53 53 NW 5 7 30.01 1016 10 16 N/A

Powered by AerisWeather